SCP
0 0 0 0 0 0 0 0 0 0 0 0 0 0 0 0 0 0 0 0 0 -0 -0 -0 -0 -0 0 0 -0 0 0 0 0 0 0 0 -0 -0 0 0 0 -0 0 -0 -0 -0 0
0 0 0 0 0 0 0 0 0 0 0 0 0 0 0 0 0 0 0 0 0 0 0 -0 -0 -0 0 0 0 0 0 0 0 0 0 0 -0 0 0 0 0 -0 0 -0 0 -0 0
0 0 0 0 0 0 0 0 0 0 0 0 0 0 0 0 0 0 0 -0 -0 0 0 0 0 0 0 -0 -0 0 0 0 0 0 -0 0 0 0 0 0 0 -0 0 0 0 0 0
0 0 0 0 0 0 0 0 0 0 0 0 0 0 0 0 0 0 0 -0 -0 -0 0 0 0 0 0 0 0 0 0 0 0 0 0 0 0 0 0 0 -0 0 0 0 0 0 -0
0 0 0 0 0 0 0 0 0 0 0 0 0 0 0 0 0 0 0 -0 -0 -0 0 -0 0 0 0 0 0 0 0 0 0 0 0 0 0 0 0 0 0 0 0 0 0 0 0
0 0 0 0 0 0 0 0 0 0 0 0 0 0 0 0 0 0 0 0 0 0 0 -0 0 0 0 0 0 0 0 0 0 0 0 0 0 0 0 0 0 -0 -0 0 0 0 0
0 0 0 0 0 0 0 0 0 0 0 0 0 0 0 0 0 0 0 0 0 0 -0 0 0 0 0 0 0 0 0 0 0 0 0 0 0 0 0 0 0 -0 -0 0 0 0 0
0 0 0 0 0 0 0 0 0 0 0 0 0 0 0 0 0 0 -0 0 0 0 0 0 0 0 0 0 0 0 0 0 0 0 0 0 0 0 -0 0 0 0 0 0 0 0 0
0 0 0 0 0 0 0 0 0 0 0 0 0 0 0 0 0 -0 -0 0 -0 -0 0 -0 0 0 0 -0 0 0 -0 0 0 0 0 0 0 0 0 0 0 0 0 0 0 0 0
0 0 0 0 0 0 0 0 0 0 0 0 0 0 0 0 0 -0 0 -0 0 0 0 0 0 0 0 0 0 0 -0 0 0 0 0 0 0 0 0 0 0 0 0 0 0 0 0
0 0 0 0 0 0 0 0 0 0 0 0 0 0 0 0 0 0 0 0 0 0 0 0 0 0 0 0 0 0 0 0 -0 0 0 0 0 0 0 0 0 0 0 0 0 0 0
0 0 0 0 0 0 0 0 0 0 0 0 0 0 0 0 0 0 0 0 0 0 0 -0 -0 0 0 0 0 0 0 0 0 0 0 0 0 0 0 0 0 0 0 0 0 0 0
0 0 0 0 0 0 0 0 0 -0 -0 -0 0 0 -0 0 0 0 0 0 0 0 0 -0 -0 -0 0 0 0 0 -0 0 0 0 0 0 0 0 -0 0 0 0 0 0 0 0 0
0 0 0 0 0 0 0 0 0 -0 -0 -0 0 0 -0 0 0 0 0 0 0 0 0 0 0 -0 -0 0 -0 -0 -0 0 0 0 0 0 0 0 0 0 0 0 -0 -0 0 0 0
0 0 0 0 0 0 0 0 0 -0 -0 -0 0 0 -0 0 0 0 0 -0 0 0 0 0 0 -0 -0 -0 -0 0 -0 0 0 0 0 0 0 0 0 0 0 0 0 0 0 0 0
0 0 0 0 0 0 0 0 0 -0 -0 0 0 0 0 0 0 0 0 -0 -0 0 0 0 0 0 0 0 0 0 0 0 0 0 0 0 0 0 0 0 0 0 0 0 0 0 0
0 0 0 0 0 0 0 0 0 -0 -0 0 0 0 0 0 0 0 0 -0 -0 0 0 0 0 0 0 0 0 0 0 0 0 0 0 0 0 0 0 0 0 0 0 0 0 0 0
0 0 0 0 0 0 0 0 0 0 -0 0 0 0 0 0 0 0 -0 -0 -0 -0 0 0 0 0 0 0 0 0 0 0 0 0 0 0 0 0 0 0 0 0 0 0 0 0 0
0 0 0 0 0 0 0 0 0 0 0 0 0 0 0 0 0 0 0 0 -0 -0 0 0 0 0 0 0 0 0 0 0 0 0 0 0 0 0 0 0 0 0 0 0 0 0 0
0 0 0 0 0 0 0 0 0 0 0 0 0 0 0 0 0 0 0 0 0 0 0 0 0 0 0 0 0 0 0 0 0 0 0 0 0 0 0 0 0 0 0 0 0 0 0
0 0 0 0 0 0 0 0 0 0 0 0 0 0 0 0 0 0 0 0 0 0 0 0 0 0 -0 0 0 0 0 0 0 0 0 0 0 0 0 0 0 0 0 0 0 0 0
0 0 0 0 0 0 0 0 0 0 0 0 0 0 0 0 0 0 0 0 0 0 0 0 0 0 0 0 0 0 0 0 0 0 0 0 0 0 0 0 0 0 0 0 0 0 0
0 0 0 0 0 0 0 0 0 0 0 0 0 0 0 0 0 0 0 0 0 0 0 0 0 0 0 0 0 0 0 0 0 0 0 0 0 0 0 0 0 0 0 0 0 0 0
0 0 0 0 0 0 0 0 0 0 0 0 0 0 0 0 0 0 0 0 0 0 0 0 0 0 0 0 0 0 0 0 0 0 0 0 0 0 0 0 0 0 0 0 0 0 0
0 0 0 0 0 0 0 0 0 0 0 0 0 0 0 0 0 0 0 0 0 0 0 0 0 0 0 0 0 0 0 0 0 0 0 0 0 0 0 0 0 0 0 0 0 0 0
0 0 0 0 0 0 0 0 0 0 0 0 0 0 0 0 0 0 0 0 0 0 0 0 0 0 0 0 0 0 0 0 0 0 0 0 0 0 0 0 0 0 0 0 0 0 0
0 0 0 0 0 0 0 0 0 0 0 0 0 0 0 0 0 0 0 0 0 0 0 0 0 0 0 0 0 0 0 0 0 0 0 0 0 0 0 0 0 0 0 0 0 0 0
0 0 0 0 0 0 0 0 0 0 0 0 0 0 0 0 0 0 0 0 0 0 0 0 0 0 0 0 0 0 0 0 0 0 0 0 0 0 0 0 0 0 0 0 0 0 0
0 0 0 0 0 0 0 0 0 0 0 0 0 0 0 0 0 0 0 0 0 0 0 0 0 0 0 0 0 0 0 0 0 0 0 0 0 0 0 0 0 0 0 0 0 0 0
Wind_Speed_500mb
20 11 8 9 10 11 10 11 13 15 16 16 17 16 16 15 15 13 13 12 12 11 11 16 24 32 36 23 8 7 12 13 14 9 4 2 9 8 5 11 12 8 18 10 15 28 41
37 28 18 13 9 6 6 11 14 16 17 18 17 16 17 14 14 13 12 13 13 11 13 18 25 33 31 13 9 7 9 15 12 5 4 10 12 23 19 10 2 6 15 7 17 17 34
43 41 36 28 20 12 6 2 7 12 15 16 17 17 16 14 14 13 13 13 13 12 15 18 25 32 37 7 10 8 2 4 5 13 20 21 26 21 13 14 18 8 7 8 2 16 12
39 41 42 39 34 27 17 8 1 5 9 12 15 14 15 14 13 13 13 13 13 14 16 19 24 30 16 7 11 11 10 11 14 20 31 31 22 26 11 18 8 10 12 10 13 4 7
35 38 38 38 38 34 30 24 14 5 6 9 10 11 13 12 13 12 12 13 14 15 18 19 22 16 14 8 10 6 13 20 24 27 18 25 21 6 4 6 13 17 7 7 8 13 8
31 32 33 34 34 33 32 31 27 15 4 5 8 10 10 10 12 11 11 12 16 16 18 17 20 13 6 11 13 12 13 12 12 14 11 11 2 4 6 13 0 3 3 7 10 14 17
26 27 29 30 31 31 32 32 33 29 13 2 5 7 8 9 9 10 8 7 10 10 12 17 15 21 25 18 14 10 12 12 12 9 7 10 12 7 15 8 8 2 9 6 3 11 9
21 23 24 26 27 28 29 31 33 35 25 7 2 5 6 7 8 9 13 8 4 8 16 19 17 31 35 36 21 22 14 7 2 5 4 14 6 14 5 10 10 7 9 7 7 12 8
17 19 21 24 25 27 28 29 30 30 30 19 4 2 5 6 7 13 17 7 6 33 7 14 18 22 21 10 14 24 12 13 3 7 4 11 15 14 9 8 12 7 9 3 5 7 7
13 16 18 21 24 26 27 28 28 28 28 26 12 1 6 9 11 8 11 22 27 5 9 12 6 10 22 11 11 15 15 6 3 1 3 6 10 15 12 6 7 6 4 4 7 5 5
10 14 17 20 23 26 28 29 28 27 25 24 19 3 7 12 5 9 16 17 4 9 5 7 11 5 10 15 4 3 14 8 10 4 10 5 10 12 12 5 6 6 4 5 4 2 11
10 13 17 20 24 26 29 29 29 26 23 21 17 8 9 8 1 15 18 5 10 12 7 10 11 10 9 8 2 6 6 6 1 8 7 5 4 4 7 7 8 4 6 14 9 7 7
11 14 17 21 24 27 30 31 31 29 24 17 16 10 9 10 6 21 13 11 10 7 9 10 4 1 7 8 3 7 3 3 7 8 9 11 11 8 5 8 13 18 16 9 12 12 6
13 15 18 21 24 27 31 32 33 31 28 20 14 11 11 15 11 16 10 12 4 6 11 12 6 6 11 9 8 5 6 3 4 11 6 8 10 3 1 9 9 9 11 10 1 2 9
16 17 19 22 25 28 30 33 34 33 30 22 14 14 10 12 11 10 7 8 12 8 8 11 11 8 7 5 8 7 11 10 11 12 11 8 4 7 7 5 9 3 8 7 12 5 4
17 18 20 23 26 29 31 33 34 33 30 24 17 12 7 11 15 2 10 7 7 9 17 7 4 5 6 6 4 10 10 5 4 6 16 13 6 5 8 13 14 7 10 7 7 0 4
20 20 20 22 25 27 30 33 33 31 28 21 14 8 5 17 21 7 7 11 10 15 21 9 4 6 0 4 6 6 7 3 3 6 3 9 8 7 5 3 7 6 4 12 9 8 8
22 21 20 20 22 24 26 30 32 30 25 16 7 4 7 30 10 6 5 9 10 16 37 16 1 6 2 6 10 6 6 2 11 10 8 4 10 5 2 9 8 5 6 9 10 8 3
23 22 21 20 20 20 21 23 27 28 26 20 13 7 8 24 7 2 7 8 11 9 8 6 5 1 4 6 7 3 5 10 15 7 11 9 5 6 13 13 10 6 5 9 9 5 8
25 23 22 21 20 19 19 19 21 24 23 21 8 6 3 8 7 11 4 9 9 11 14 10 9 8 7 12 9 6 4 14 11 13 15 10 7 12 13 10 6 6 10 6 8 5 5
30 28 25 23 21 20 18 17 18 19 20 14 7 4 4 4 4 2 7 5 7 8 8 15 11 6 9 5 7 8 4 3 13 8 9 9 6 4 4 2 3 3 5 9 10 12 10
34 32 29 26 24 22 20 19 18 17 14 8 4 6 6 4 9 2 6 5 5 5 5 9 7 5 5 10 9 8 6 3 7 4 6 6 3 3 4 2 10 5 12 12 6 6 2
37 36 34 31 28 25 23 21 20 16 11 2 3 4 4 6 5 4 3 5 4 6 6 6 1 8 8 10 11 3 13 4 3 11 5 6 10 6 7 6 9 10 7 6 4 3 9
40 39 38 35 32 31 27 24 21 16 11 9 8 5 4 6 1 2 6 4 5 7 5 9 6 9 7 8 11 13 33 32 21 19 5 10 9 4 5 5 1 11 4 7 8 7 8
43 42 39 38 36 33 30 26 22 18 13 14 16 7 5 3 4 9 18 5 9 9 2 4 2 8 16 8 8 9 10 7 11 13 11 3 10 6 8 6 7 5 5 9 7 7 6
48 46 43 39 37 35 32 28 23 19 16 17 19 14 7 3 4 7 6 6 2 6 10 4 10 10 6 9 7 7 6 7 3 8 9 10 11 9 6 8 11 13 6 1 4 8 2
47 47 45 41 37 35 32 29 24 19 18 16 21 16 9 6 3 4 2 3 3 2 1 8 10 3 3 5 5 5 6 4 6 8 5 5 5 8 5 7 11 13 12 8 9 13 7
44 43 43 40 36 34 32 28 23 19 18 17 21 20 17 9 8 3 4 3 3 5 5 7 5 5 8 8 6 6 5 6 2 7 11 14 11 7 5 4 11 12 11 11 10 4 2
41 41 40 38 35 33 31 27 23 20 17 21 24 22 17 13 12 15 11 7 3 5 6 7 4 1 2 8 1 6 3 4 6 5 4 4 11 9 15 11 5 22 8 14 6 7 4
Wind_Direction_500mb
67 86 125 163 188 200 209 220 221 227 231 236 239 243 248 250 250 246 247 247 247 250 276 307 322 328 340 319 304 63 107 153 147 136 138 276 311 349 309 305 283 200 276 222 259 175 184
66 71 84 100 111 137 194 225 232 236 240 240 243 246 246 246 245 246 247 245 243 244 280 310 322 328 332 300 7 87 84 104 111 92 358 311 322 321 301 270 215 297 323 196 154 179 161
68 71 75 77 78 80 90 159 235 239 242 242 243 242 245 240 242 248 246 242 239 246 282 310 321 323 315 285 343 300 289 46 334 323 311 318 316 298 320 306 332 298 217 0 126 162 147
68 69 70 71 71 68 61 50 322 252 241 236 236 237 237 233 240 249 245 240 234 253 285 307 314 318 274 286 276 270 304 325 319 318 316 311 320 281 249 309 350 18 43 5 336 71 116
69 67 65 65 63 61 57 48 33 335 261 241 236 230 229 232 242 247 242 234 234 260 284 300 303 306 291 252 274 340 315 319 326 328 320 308 293 262 320 37 19 19 9 349 355 39 129
66 65 63 61 59 55 51 44 37 20 316 251 236 227 229 233 239 242 237 226 242 269 284 291 277 299 277 337 296 310 307 317 351 324 335 360 20 35 35 50 178 273 63 24 40 328 56
65 63 59 57 54 50 46 40 34 32 25 333 228 220 221 223 232 236 223 217 262 264 263 249 284 269 300 331 301 254 315 290 318 314 29 5 45 293 266 156 179 211 113 104 327 335 80
64 59 54 51 49 45 42 37 33 31 32 37 187 205 208 216 217 224 202 204 121 12 310 290 283 271 278 286 295 261 278 231 29 306 22 9 294 264 48 135 116 195 108 3 328 349 69
55 49 44 40 38 37 35 32 30 30 28 31 27 174 191 197 202 210 224 259 348 320 277 285 258 270 279 317 239 272 255 252 222 303 221 170 244 32 108 98 88 25 79 11 221 343 45
39 36 31 27 26 24 23 24 22 23 23 23 20 131 180 175 199 230 78 348 316 269 64 283 247 267 250 259 292 271 261 181 117 244 40 218 308 128 111 123 123 53 257 243 265 87 201
15 16 15 14 13 10 10 11 11 13 16 15 12 355 192 194 85 60 359 337 4 120 88 237 220 216 191 171 255 83 197 176 155 234 83 272 138 113 85 28 142 220 353 33 13 92 92
344 353 356 359 360 359 358 358 360 359 5 6 359 343 230 240 227 9 14 100 126 44 275 311 182 195 116 207 257 159 173 106 96 67 26 7 130 65 112 58 43 29 16 42 48 54 61
320 334 340 345 347 347 346 348 349 346 349 357 340 333 289 222 149 352 34 130 47 119 324 314 216 187 159 161 210 182 164 122 130 88 358 12 338 320 149 85 10 57 46 357 12 12 244
304 316 327 333 336 337 338 339 341 339 337 342 336 320 293 249 274 351 77 57 117 259 265 289 289 124 177 155 241 209 127 180 124 89 103 111 343 336 217 129 149 66 108 135 45 303 280
292 305 317 323 329 332 332 332 335 335 332 336 330 314 306 252 251 12 105 75 207 219 291 302 318 103 358 346 189 137 197 200 187 163 129 132 282 321 15 121 106 133 41 173 105 12 42
279 293 305 315 322 327 329 329 331 332 331 332 332 318 314 215 211 48 76 213 240 233 332 322 72 62 130 300 170 163 163 288 201 208 143 190 119 347 349 56 36 94 154 38 14 88 288
270 281 294 306 316 323 326 327 328 332 330 328 328 322 348 175 180 103 133 232 280 289 1 333 329 49 272 283 154 151 164 340 293 102 344 119 103 276 37 39 196 12 32 55 111 132 172
262 272 283 294 306 315 323 327 330 336 338 327 331 30 144 159 86 74 144 199 305 305 323 258 196 59 346 316 36 74 120 310 321 137 100 35 121 104 190 320 319 177 161 124 119 249 196
255 264 275 286 296 305 316 326 333 342 352 359 344 303 140 181 119 353 298 279 259 284 294 278 136 251 292 15 76 49 53 26 14 68 147 180 30 52 354 354 358 28 60 105 113 80 209
249 258 266 276 285 295 305 319 331 340 350 353 352 12 5 181 108 143 160 266 269 303 269 242 161 118 60 33 30 160 91 22 23 72 78 97 99 148 185 198 193 325 351 62 115 107 225
244 252 260 268 276 285 293 305 321 333 340 352 15 27 24 306 17 110 176 270 273 314 316 19 344 80 144 87 25 15 47 65 31 34 46 87 106 152 158 236 54 281 314 311 199 211 162
246 248 254 261 269 275 285 294 307 321 333 338 17 19 0 308 311 307 148 223 252 325 252 325 358 25 75 138 161 202 154 170 180 35 77 7 147 81 355 29 35 338 332 314 307 107 3
247 250 252 256 263 269 277 286 295 308 320 282 217 261 335 321 343 87 215 326 332 312 317 323 188 108 107 180 166 295 214 288 128 137 109 87 123 87 257 357 13 4 295 345 36 8 150
242 245 249 254 258 263 269 276 284 290 285 253 216 214 185 270 322 237 344 294 310 307 258 307 170 123 165 142 116 92 77 86 72 39 79 125 101 102 197 46 116 245 280 262 115 336 319
245 242 242 248 251 255 261 265 269 270 259 246 220 211 190 230 279 334 342 330 334 338 247 201 246 136 143 131 59 35 355 33 30 44 8 33 125 97 141 181 279 249 219 175 173 255 230
241 238 239 241 245 247 251 254 255 255 244 236 210 203 191 162 238 287 293 339 32 334 359 37 87 136 158 81 74 124 197 223 312 337 47 57 64 120 140 161 197 239 218 160 105 280 283
232 231 233 234 236 239 242 243 243 238 234 225 198 200 193 244 213 54 138 272 356 69 171 329 344 15 67 83 95 144 219 185 183 185 224 25 1 175 160 216 288 242 186 113 100 238 109
226 225 224 225 226 229 232 232 231 226 223 207 189 202 211 220 223 144 117 118 14 25 122 343 50 335 44 68 119 193 150 240 131 206 181 180 164 208 106 138 270 184 110 167 218 217 64
222 219 217 215 217 220 223 224 220 216 209 189 193 212 218 222 252 220 219 198 161 350 31 32 137 189 183 91 117 110 143 68 138 264 358 260 187 185 174 214 257 180 160 165 175 151 136
Wind_Speed_850mb
20 11 8 9 10 11 10 11 13 15 16 16 17 16 16 15 15 13 13 12 12 11 11 16 24 32 36 23 8 7 12 13 14 9 4 2 9 8 5 11 12 8 18 10 15 28 41
37 28 18 13 9 6 6 11 14 16 17 18 17 16 17 14 14 13 12 13 13 11 13 18 25 33 31 13 9 7 9 15 12 5 4 10 12 23 19 10 2 6 15 7 17 17 34
43 41 36 28 20 12 6 2 7 12 15 16 17 17 16 14 14 13 13 13 13 12 15 18 25 32 37 7 10 8 2 4 5 13 20 21 26 21 13 14 18 8 7 8 2 16 12
39 41 42 39 34 27 17 8 1 5 9 12 15 14 15 14 13 13 13 13 13 14 16 19 24 30 16 7 11 11 10 11 14 20 31 31 22 26 11 18 8 10 12 10 13 4 7
35 38 38 38 38 34 30 24 14 5 6 9 10 11 13 12 13 12 12 13 14 15 18 19 22 16 14 8 10 6 13 20 24 27 18 25 21 6 4 6 13 17 7 7 8 13 8
31 32 33 34 34 33 32 31 27 15 4 5 8 10 10 10 12 11 11 12 16 16 18 17 20 13 6 11 13 12 13 12 12 14 11 11 2 4 6 13 0 3 3 7 10 14 17
26 27 29 30 31 31 32 32 33 29 13 2 5 7 8 9 9 10 8 7 10 10 12 17 15 21 25 18 14 10 12 12 12 9 7 10 12 7 15 8 8 2 9 6 3 11 9
21 23 24 26 27 28 29 31 33 35 25 7 2 5 6 7 8 9 13 8 4 8 16 19 17 31 35 36 21 22 14 7 2 5 4 14 6 14 5 10 10 7 9 7 7 12 8
17 19 21 24 25 27 28 29 30 30 30 19 4 2 5 6 7 13 17 7 6 33 7 14 18 22 21 10 14 24 12 13 3 7 4 11 15 14 9 8 12 7 9 3 5 7 7
13 16 18 21 24 26 27 28 28 28 28 26 12 1 6 9 11 8 11 22 27 5 9 12 6 10 22 11 11 15 15 6 3 1 3 6 10 15 12 6 7 6 4 4 7 5 5
10 14 17 20 23 26 28 29 28 27 25 24 19 3 7 12 5 9 16 17 4 9 5 7 11 5 10 15 4 3 14 8 10 4 10 5 10 12 12 5 6 6 4 5 4 2 11
10 13 17 20 24 26 29 29 29 26 23 21 17 8 9 8 1 15 18 5 10 12 7 10 11 10 9 8 2 6 6 6 1 8 7 5 4 4 7 7 8 4 6 14 9 7 7
11 14 17 21 24 27 30 31 31 29 24 17 16 10 9 10 6 21 13 11 10 7 9 10 4 1 7 8 3 7 3 3 7 8 9 11 11 8 5 8 13 18 16 9 12 12 6
13 15 18 21 24 27 31 32 33 31 28 20 14 11 11 15 11 16 10 12 4 6 11 12 6 6 11 9 8 5 6 3 4 11 6 8 10 3 1 9 9 9 11 10 1 2 9
16 17 19 22 25 28 30 33 34 33 30 22 14 14 10 12 11 10 7 8 12 8 8 11 11 8 7 5 8 7 11 10 11 12 11 8 4 7 7 5 9 3 8 7 12 5 4
17 18 20 23 26 29 31 33 34 33 30 24 17 12 7 11 15 2 10 7 7 9 17 7 4 5 6 6 4 10 10 5 4 6 16 13 6 5 8 13 14 7 10 7 7 0 4
20 20 20 22 25 27 30 33 33 31 28 21 14 8 5 17 21 7 7 11 10 15 21 9 4 6 0 4 6 6 7 3 3 6 3 9 8 7 5 3 7 6 4 12 9 8 8
22 21 20 20 22 24 26 30 32 30 25 16 7 4 7 30 10 6 5 9 10 16 37 16 1 6 2 6 10 6 6 2 11 10 8 4 10 5 2 9 8 5 6 9 10 8 3
23 22 21 20 20 20 21 23 27 28 26 20 13 7 8 24 7 2 7 8 11 9 8 6 5 1 4 6 7 3 5 10 15 7 11 9 5 6 13 13 10 6 5 9 9 5 8
25 23 22 21 20 19 19 19 21 24 23 21 8 6 3 8 7 11 4 9 9 11 14 10 9 8 7 12 9 6 4 14 11 13 15 10 7 12 13 10 6 6 10 6 8 5 5
30 28 25 23 21 20 18 17 18 19 20 14 7 4 4 4 4 2 7 5 7 8 8 15 11 6 9 5 7 8 4 3 13 8 9 9 6 4 4 2 3 3 5 9 10 12 10
34 32 29 26 24 22 20 19 18 17 14 8 4 6 6 4 9 2 6 5 5 5 5 9 7 5 5 10 9 8 6 3 7 4 6 6 3 3 4 2 10 5 12 12 6 6 2
37 36 34 31 28 25 23 21 20 16 11 2 3 4 4 6 5 4 3 5 4 6 6 6 1 8 8 10 11 3 13 4 3 11 5 6 10 6 7 6 9 10 7 6 4 3 9
40 39 38 35 32 31 27 24 21 16 11 9 8 5 4 6 1 2 6 4 5 7 5 9 6 9 7 8 11 13 33 32 21 19 5 10 9 4 5 5 1 11 4 7 8 7 8
43 42 39 38 36 33 30 26 22 18 13 14 16 7 5 3 4 9 18 5 9 9 2 4 2 8 16 8 8 9 10 7 11 13 11 3 10 6 8 6 7 5 5 9 7 7 6
48 46 43 39 37 35 32 28 23 19 16 17 19 14 7 3 4 7 6 6 2 6 10 4 10 10 6 9 7 7 6 7 3 8 9 10 11 9 6 8 11 13 6 1 4 8 2
47 47 45 41 37 35 32 29 24 19 18 16 21 16 9 6 3 4 2 3 3 2 1 8 10 3 3 5 5 5 6 4 6 8 5 5 5 8 5 7 11 13 12 8 9 13 7
44 43 43 40 36 34 32 28 23 19 18 17 21 20 17 9 8 3 4 3 3 5 5 7 5 5 8 8 6 6 5 6 2 7 11 14 11 7 5 4 11 12 11 11 10 4 2
41 41 40 38 35 33 31 27 23 20 17 21 24 22 17 13 12 15 11 7 3 5 6 7 4 1 2 8 1 6 3 4 6 5 4 4 11 9 15 11 5 22 8 14 6 7 4
Wind_Direction_850mb
67 86 125 163 188 200 209 220 221 227 231 236 239 243 248 250 250 246 247 247 247 250 276 307 322 328 340 319 304 63 107 153 147 136 138 276 311 349 309 305 283 200 276 222 259 175 184
66 71 84 100 111 137 194 225 232 236 240 240 243 246 246 246 245 246 247 245 243 244 280 310 322 328 332 300 7 87 84 104 111 92 358 311 322 321 301 270 215 297 323 196 154 179 161
68 71 75 77 78 80 90 159 235 239 242 242 243 242 245 240 242 248 246 242 239 246 282 310 321 323 315 285 343 300 289 46 334 323 311 318 316 298 320 306 332 298 217 0 126 162 147
68 69 70 71 71 68 61 50 322 252 241 236 236 237 237 233 240 249 245 240 234 253 285 307 314 318 274 286 276 270 304 325 319 318 316 311 320 281 249 309 350 18 43 5 336 71 116
69 67 65 65 63 61 57 48 33 335 261 241 236 230 229 232 242 247 242 234 234 260 284 300 303 306 291 252 274 340 315 319 326 328 320 308 293 262 320 37 19 19 9 349 355 39 129
66 65 63 61 59 55 51 44 37 20 316 251 236 227 229 233 239 242 237 226 242 269 284 291 277 299 277 337 296 310 307 317 351 324 335 360 20 35 35 50 178 273 63 24 40 328 56
65 63 59 57 54 50 46 40 34 32 25 333 228 220 221 223 232 236 223 217 262 264 263 249 284 269 300 331 301 254 315 290 318 314 29 5 45 293 266 156 179 211 113 104 327 335 80
64 59 54 51 49 45 42 37 33 31 32 37 187 205 208 216 217 224 202 204 121 12 310 290 283 271 278 286 295 261 278 231 29 306 22 9 294 264 48 135 116 195 108 3 328 349 69
55 49 44 40 38 37 35 32 30 30 28 31 27 174 191 197 202 210 224 259 348 320 277 285 258 270 279 317 239 272 255 252 222 303 221 170 244 32 108 98 88 25 79 11 221 343 45
39 36 31 27 26 24 23 24 22 23 23 23 20 131 180 175 199 230 78 348 316 269 64 283 247 267 250 259 292 271 261 181 117 244 40 218 308 128 111 123 123 53 257 243 265 87 201
15 16 15 14 13 10 10 11 11 13 16 15 12 355 192 194 85 60 359 337 4 120 88 237 220 216 191 171 255 83 197 176 155 234 83 272 138 113 85 28 142 220 353 33 13 92 92
344 353 356 359 360 359 358 358 360 359 5 6 359 343 230 240 227 9 14 100 126 44 275 311 182 195 116 207 257 159 173 106 96 67 26 7 130 65 112 58 43 29 16 42 48 54 61
320 334 340 345 347 347 346 348 349 346 349 357 340 333 289 222 149 352 34 130 47 119 324 314 216 187 159 161 210 182 164 122 130 88 358 12 338 320 149 85 10 57 46 357 12 12 244
304 316 327 333 336 337 338 339 341 339 337 342 336 320 293 249 274 351 77 57 117 259 265 289 289 124 177 155 241 209 127 180 124 89 103 111 343 336 217 129 149 66 108 135 45 303 280
292 305 317 323 329 332 332 332 335 335 332 336 330 314 306 252 251 12 105 75 207 219 291 302 318 103 358 346 189 137 197 200 187 163 129 132 282 321 15 121 106 133 41 173 105 12 42
279 293 305 315 322 327 329 329 331 332 331 332 332 318 314 215 211 48 76 213 240 233 332 322 72 62 130 300 170 163 163 288 201 208 143 190 119 347 349 56 36 94 154 38 14 88 288
270 281 294 306 316 323 326 327 328 332 330 328 328 322 348 175 180 103 133 232 280 289 1 333 329 49 272 283 154 151 164 340 293 102 344 119 103 276 37 39 196 12 32 55 111 132 172
262 272 283 294 306 315 323 327 330 336 338 327 331 30 144 159 86 74 144 199 305 305 323 258 196 59 346 316 36 74 120 310 321 137 100 35 121 104 190 320 319 177 161 124 119 249 196
255 264 275 286 296 305 316 326 333 342 352 359 344 303 140 181 119 353 298 279 259 284 294 278 136 251 292 15 76 49 53 26 14 68 147 180 30 52 354 354 358 28 60 105 113 80 209
249 258 266 276 285 295 305 319 331 340 350 353 352 12 5 181 108 143 160 266 269 303 269 242 161 118 60 33 30 160 91 22 23 72 78 97 99 148 185 198 193 325 351 62 115 107 225
244 252 260 268 276 285 293 305 321 333 340 352 15 27 24 306 17 110 176 270 273 314 316 19 344 80 144 87 25 15 47 65 31 34 46 87 106 152 158 236 54 281 314 311 199 211 162
246 248 254 261 269 275 285 294 307 321 333 338 17 19 0 308 311 307 148 223 252 325 252 325 358 25 75 138 161 202 154 170 180 35 77 7 147 81 355 29 35 338 332 314 307 107 3
247 250 252 256 263 269 277 286 295 308 320 282 217 261 335 321 343 87 215 326 332 312 317 323 188 108 107 180 166 295 214 288 128 137 109 87 123 87 257 357 13 4 295 345 36 8 150
242 245 249 254 258 263 269 276 284 290 285 253 216 214 185 270 322 237 344 294 310 307 258 307 170 123 165 142 116 92 77 86 72 39 79 125 101 102 197 46 116 245 280 262 115 336 319
245 242 242 248 251 255 261 265 269 270 259 246 220 211 190 230 279 334 342 330 334 338 247 201 246 136 143 131 59 35 355 33 30 44 8 33 125 97 141 181 279 249 219 175 173 255 230
241 238 239 241 245 247 251 254 255 255 244 236 210 203 191 162 238 287 293 339 32 334 359 37 87 136 158 81 74 124 197 223 312 337 47 57 64 120 140 161 197 239 218 160 105 280 283
232 231 233 234 236 239 242 243 243 238 234 225 198 200 193 244 213 54 138 272 356 69 171 329 344 15 67 83 95 144 219 185 183 185 224 25 1 175 160 216 288 242 186 113 100 238 109
226 225 224 225 226 229 232 232 231 226 223 207 189 202 211 220 223 144 117 118 14 25 122 343 50 335 44 68 119 193 150 240 131 206 181 180 164 208 106 138 270 184 110 167 218 217 64
222 219 217 215 217 220 223 224 220 216 209 189 193 212 218 222 252 220 219 198 161 350 31 32 137 189 183 91 117 110 143 68 138 264 358 260 187 185 174 214 257 180 160 165 175 151 136